TimeHST,TemperatureF,Dew PointF,Humidity,Sea Level PressureIn,VisibilityMPH,Wind Direction,Wind SpeedMPH,Gust SpeedMPH,PrecipitationIn,Events,Conditions,WindDirDegrees,DateUTC
12:53 AM,68.0,62.1,81,30.05,10.0,WSW,5.8,-,0.00,,Scattered Clouds,240,2013-05-30 10:53:00
1:53 AM,68.0,63.0,84,30.04,10.0,South,8.1,-,N/A,,Overcast,180,2013-05-30 11:53:00
2:53 AM,69.1,61.0,75,30.02,10.0,SW,5.8,-,N/A,,Overcast,230,2013-05-30 12:53:00
3:35 AM,68.0,64.0,87,30.03,10.0,SSE,5.8,-,N/A,,Overcast,150,2013-05-30 13:35:00
3:53 AM,68.0,64.0,87,30.03,5.0,South,4.6,-,0.00,Rain,Light Rain,190,2013-05-30 13:53:00
4:20 AM,68.0,63.0,84,30.02,10.0,WSW,9.2,-,0.00,Rain,Light Rain,250,2013-05-30 14:20:00
4:37 AM,68.0,63.0,84,30.03,10.0,WSW,5.8,-,0.00,Rain,Light Rain,240,2013-05-30 14:37:00
4:53 AM,69.1,62.1,78,30.03,5.0,Calm,Calm,-,0.00,Rain,Light Rain,0,2013-05-30 14:53:00
5:10 AM,68.0,63.0,84,30.03,10.0,West,8.1,-,0.01,Rain,Light Rain,270,2013-05-30 15:10:00
5:53 AM,66.9,64.0,90,30.03,10.0,SW,5.8,-,0.01,,Overcast,230,2013-05-30 15:53:00
6:53 AM,72.0,64.9,78,30.04,10.0,WSW,5.8,-,N/A,,Overcast,240,2013-05-30 16:53:00
7:53 AM,75.9,64.9,69,30.04,10.0,WSW,4.6,-,N/A,,Scattered Clouds,240,2013-05-30 17:53:00
8:53 AM,79.0,66.0,64,30.05,10.0,East,4.6,-,0.00,,Scattered Clouds,90,2013-05-30 18:53:00
9:53 AM,81.0,64.9,58,30.04,10.0,ENE,4.6,-,N/A,,Scattered Clouds,70,2013-05-30 19:53:00
10:53 AM,82.9,66.0,56,30.03,10.0,East,9.2,-,N/A,,Scattered Clouds,90,2013-05-30 20:53:00
11:53 AM,82.9,66.0,56,30.01,10.0,ENE,8.1,-,N/A,,Scattered Clouds,70,2013-05-30 21:53:00
12:53 PM,82.9,66.9,58,30.00,10.0,NE,11.5,-,N/A,,Scattered Clouds,50,2013-05-30 22:53:00
1:53 PM,82.9,66.0,56,29.99,10.0,ENE,11.5,-,N/A,,Scattered Clouds,60,2013-05-30 23:53:00
2:53 PM,82.9,64.9,54,29.97,10.0,East,10.4,-,N/A,,Scattered Clouds,80,2013-05-31 00:53:00
3:53 PM,81.0,66.9,62,29.98,10.0,ENE,10.4,-,N/A,,Scattered Clouds,60,2013-05-31 01:53:00
4:53 PM,80.1,66.0,62,29.97,10.0,East,6.9,-,N/A,,Partly Cloudy,80,2013-05-31 02:53:00
5:53 PM,79.0,66.0,64,29.98,10.0,East,5.8,-,0.00,,Clear,100,2013-05-31 03:53:00
6:53 PM,75.0,66.0,73,30.00,10.0,East,3.5,-,0.00,,Clear,100,2013-05-31 04:53:00
7:53 PM,73.0,66.9,81,30.02,10.0,Calm,Calm,-,N/A,,Clear,0,2013-05-31 05:53:00
8:53 PM,72.0,66.9,84,30.03,10.0,SW,5.8,-,N/A,,Mostly Cloudy,230,2013-05-31 06:53:00
9:53 PM,72.0,66.0,81,30.03,10.0,WSW,9.2,-,N/A,,Overcast,250,2013-05-31 07:53:00
10:53 PM,72.0,64.0,76,30.04,10.0,SW,6.9,-,N/A,,Overcast,220,2013-05-31 08:53:00
11:53 PM,72.0,66.0,81,30.03,10.0,ESE,3.5,-,N/A,,Overcast,120,2013-05-31 09:53:00